Regional Weather Roundup
Issued by NWS Lake Charles, LA

Home | Current Version | Previous Version | Text Only | Print | Product List | Glossary On
Versions: 1 2 3 4 5 6 7 8 9 10 11 12 13 14 15 16 17 18 19 20 21 22 23 24 25 26 27 28 29 30 31 32 33 34 35 36 37 38 39 40 41 42 43 44 45 46 47 48 49 50
368
ASUS44 KLCH 232010
RWRLCH
REGIONAL WEATHER ROUNDUP
NATIONAL WEATHER SERVICE LAKE CHARLES LA
200 PM CST THU NOV 23 2017

Note: "fair" indicates few or no clouds below 12,000 feet with no
significant weather and/or obstructions to visibility.


ACROSS SOUTHEAST TEXAS

CITY           SKY/WX    TMP DP  RH WIND       PRES   REMARKS
BEAUMONT       SUNNY     63  35  35 N10       30.08F
BEAUMONT CITY  FAIR      63  32  31 N12       30.10F
ORANGE         CLEAR     61  32  33 N9        30.11F
JASPER         SUNNY     61  33  34 CALM      30.12F
$$

ACROSS CENTRAL LOUISIANA

CITY           SKY/WX    TMP DP  RH WIND       PRES   REMARKS
LEESVILLE      SUNNY     59  28  30 N6        30.07F
FULLERTON      FAIR      60  28  29 VRB5      30.06F
ALEXANDRIA INT SUNNY     60  20  21 N9        30.07F
ESLER FIELD    SUNNY     61  21  21 NE7       30.08F
DERIDDER       FAIR      60  25  26 N9        30.10F
OAKDALE        CLEAR     61  23  23 NW7       30.08F
OPELOUSAS      FAIR      59  29  32 N6        30.06F
$$

ACROSS SOUTHWEST AND SOUTH CENTRAL LOUISIANA

CITY           SKY/WX    TMP DP  RH WIND       PRES   REMARKS
SULPHUR        CLEAR     62  25  24 N9        30.09F
LAKE CHARLES   SUNNY     61  26  26 N9        30.07F
CHENNAULT INT  SUNNY     63  28  27 N8        30.08F
CAMERON PHI    CLEAR     59  27  29 N13       30.09F
DEQUINCY       FAIR      60  28  30 NW10      30.09F
JENNINGS       FAIR      58  31  36 N10       30.07F
LAFAYETTE      SUNNY     60  28  29 N12       30.06F
NEW IBERIA     SUNNY     61  28  28 N13       30.06F
ABBEVILLE      FAIR      60  28  30 N7        30.06F
PATTERSON      SUNNY     61  29  29 NE10      30.03F
SALT POINT       N/A      1   1 100 VRB5      30.02F WCI  -9
$$

SELECTED SITES ACROSS THE REGION

CITY           SKY/WX    TMP DP  RH WIND       PRES   REMARKS
HOUSTON BUSH   MOSUNNY   65  35  33 NW6       30.10F
HOUSTON HOBBY  MOSUNNY   63  33  32 NW7       30.10F
GALVESTON      SUNNY     62  37  39 N9        30.12F
COLLEGE STAT   SUNNY     64  29  26 CALM      30.11F
CONROE         SUNNY     64  33  31 W5        30.10F
HUNTSVILLE     SUNNY     64  31  28 VRB3      30.10F
LUFKIN         SUNNY     62  33  33 NE6       30.10F
SHREVEPORT     SUNNY     60  26  27 N7        30.10F
MONROE         SUNNY     58  25  28 N7        30.10F
NATCHEZ MS     SUNNY     56  25  30 N10       30.08F
BATON ROUGE    SUNNY     62  24  23 N9        30.04F
N.O. INTL ARPT MOSUNNY   61  31  32 N10       30.02F
SLIDELL        SUNNY     64  27  24 N10       30.00F
$$

MARINE REPORTS

STATION/POSITION TIME  SKY/WX   TEMP    WIND        PRES    VSBY
                                AIR SEA DIR/SP/G
                 (UTC)          (F)     (DEG/KT/KT) (MB)    (MI)
BUOY 30 S HIGH I 1850            56 69  350/  8/ 12 1020.2
WVE H/P(F/S)=  3/ 4

SEA RIM ST PARK  2000            59      10/ 10/ 19 1019.3F
PORT ARTHUR      1948            58 64   10/ 10/ 13 1019.0F
SABINE PASS N    1948            58 63   20/  8/ 15 1020.5F
TEXAS POINT      NOT AVBL
CALCASIEU PASS   1948            56 59   20/ 10/ 12 1017.5F
LK CHARLES BEACH 1948            58 66              1018.1F
MARSH ISLAND     1900            53                   N/A
FRESH WATER LOCK 1948            57 65  330/  7/ 12 1017.8F
AMERADA PASS     1948            59 58   10/  4/  7 1016.7F
$$




USA.gov is the U.S. government's official web portal to all federal, state and local government web resources and services.